Helicity
241 224 186 206 187 185 190 181 169 132 122 119 111 85 113 106 101 104 118 104 123 134 148 177 92 28 27
206 189 200 195 178 173 183 164 165 130 92 74 72 78 112 102 110 95 126 121 126 120 136 208 262 151 53
203 208 207 216 224 222 205 197 184 184 162 119 95 83 97 101 99 88 85 107 113 100 123 166 282 369 260
229 230 219 215 220 210 191 178 178 161 141 120 83 96 82 86 75 76 87 94 97 100 93 134 201 289 326
224 221 208 198 181 180 181 174 143 122 101 81 80 81 70 54 34 34 60 81 83 92 89 112 146 173 223
204 196 173 172 179 183 206 195 150 94 86 81 80 54 57 43 61 30 46 64 75 89 102 131 129 126 146
132 132 146 155 175 167 163 156 126 93 51 62 57 45 61 46 42 50 52 70 85 91 103 120 131 134 125
127 127 124 125 124 117 118 115 131 88 77 58 57 53 52 45 41 53 59 64 73 83 99 114 123 128 126
139 147 120 96 108 128 150 122 82 56 53 65 55 76 45 44 57 67 62 55 64 84 96 98 106 106 108
144 141 120 116 87 74 84 93 82 51 53 90 84 70 58 52 44 36 68 72 101 82 82 86 91 93 86
121 118 102 86 90 103 100 74 102 75 51 87 66 69 74 73 60 67 85 67 64 64 65 73 81 99 103
106 95 92 98 101 102 113 107 88 71 55 77 75 83 92 87 87 94 94 74 68 64 76 79 69 65 66
113 101 121 123 125 108 111 105 105 97 98 78 82 97 90 90 88 98 96 55 79 77 84 72 69 75 84
125 117 162 130 99 87 97 80 113 118 109 98 112 101 100 93 100 77 61 60 70 66 68 70 73 77 79
136 140 128 129 118 103 114 122 121 138 122 113 109 107 122 135 97 68 63 70 81 87 92 79 72 74 77
142 142 132 141 139 125 126 140 156 151 150 145 135 141 138 114 76 78 88 93 93 101 100 87 77 82 85
147 143 146 141 122 141 147 162 164 161 157 148 118 128 110 81 83 42 100 103 101 96 86 86 94 106 99
Wind_Speed
43 45 46 43 41 39 37 35 35 36 35 39 43 42 43 40 43 46 45 45 45 46 46 46 44 34 45
44 45 44 41 39 40 39 39 38 36 36 38 43 42 41 41 40 38 43 43 43 41 40 39 35 31 39
46 44 43 39 42 40 39 36 34 34 37 40 42 44 41 39 39 38 38 39 39 38 36 34 31 27 20
43 43 42 41 39 41 40 36 35 33 35 38 40 41 37 36 36 38 41 39 40 37 34 31 29 26 21
40 41 41 42 41 37 36 37 35 33 35 36 37 35 33 34 33 32 38 38 37 35 35 31 29 27 24
38 38 37 39 35 35 33 32 38 29 32 34 31 28 27 26 30 30 38 37 37 36 36 33 32 30 29
32 32 34 28 28 28 25 28 30 26 26 28 25 24 24 25 28 30 33 31 30 31 30 31 31 32 32
30 31 31 23 16 18 17 20 27 27 24 24 23 25 23 25 26 28 28 28 26 26 27 27 29 28 29
33 29 25 19 17 17 16 19 24 22 18 24 25 23 24 22 26 26 24 21 23 24 26 27 27 28 28
30 26 22 19 15 20 15 13 19 19 20 17 22 21 23 20 22 25 26 24 24 24 25 27 29 31 31
27 22 20 19 20 19 19 13 12 19 20 17 17 16 28 34 33 31 26 26 28 27 27 29 28 31 33
22 20 18 17 18 17 18 18 18 17 13 14 22 25 31 37 39 31 32 33 29 27 25 29 34 39 39
25 22 19 15 14 15 17 17 18 17 17 20 24 26 30 35 34 31 30 31 27 26 29 36 38 35 39
25 21 19 14 13 12 13 11 14 18 25 29 30 28 30 33 35 33 30 34 24 25 29 35 37 36 37
23 20 20 15 14 11 12 13 19 20 24 28 29 31 34 35 35 30 28 29 27 30 33 38 41 39 39
25 24 22 19 17 14 16 16 19 22 24 26 28 35 39 39 21 31 32 32 30 29 34 43 50 43 39
28 28 26 22 20 21 19 21 23 25 25 24 26 29 30 35 35 21 33 33 32 35 36 39 48 43 41
Wind_Direction
321 322 322 322 324 326 326 325 326 328 330 331 331 332 331 333 325 316 317 317 308 301 302 306 289 272 265
320 322 323 323 325 324 324 323 322 325 327 327 328 330 329 327 327 332 318 310 298 301 307 308 313 294 273
317 322 322 322 322 322 321 322 323 325 325 325 326 325 325 324 326 323 320 312 301 295 304 307 318 328 330
317 318 319 320 318 316 316 318 318 321 322 323 323 321 320 323 326 323 310 303 291 295 298 309 310 314 320
316 318 318 317 314 316 315 315 313 316 319 319 320 319 319 321 324 329 305 303 296 296 292 299 306 312 309
317 317 318 320 322 317 320 317 313 316 318 317 322 322 324 328 326 325 299 296 293 293 294 297 298 301 300
319 320 320 322 323 325 325 322 320 329 326 322 326 327 332 330 320 317 307 310 314 307 307 303 298 297 296
323 327 327 337 337 339 342 336 332 332 329 325 333 326 335 326 321 315 314 317 326 322 314 308 302 304 303
324 330 334 337 344 348 343 331 329 333 330 327 325 332 327 334 310 315 331 344 332 324 319 316 312 310 310
329 337 338 341 341 334 338 334 335 338 331 331 327 333 330 336 327 320 329 330 327 325 324 317 309 305 306
324 335 343 347 340 337 341 345 342 337 343 329 339 339 314 303 307 308 320 316 314 316 320 317 317 312 309
313 322 330 336 337 338 337 340 344 342 352 344 327 313 306 306 305 310 306 304 309 313 321 314 303 298 300
301 308 316 328 338 338 334 336 336 337 331 326 320 323 316 313 314 314 310 305 308 312 309 302 303 308 305
294 298 305 313 314 317 321 325 326 322 316 313 314 317 317 317 312 309 308 305 321 316 312 308 308 309 309
285 282 289 293 295 298 304 304 307 313 317 315 317 319 316 314 306 307 310 311 315 315 313 308 306 308 310
274 274 278 280 283 286 292 293 300 308 316 318 317 313 310 308 307 306 307 308 315 316 313 308 303 309 312
267 269 271 274 274 278 281 289 296 303 312 318 317 315 313 309 312 310 305 310 311 309 310 309 308 314 316